Location: Castiglione Fibocchi
(43.5333°N, 11.7667°E)
Time: 09:36:38
(UTC+00:00)

Lacrosse 5 rocket - Pass Details

Date: 15 August 2020
Orbit: 464 x 632 km, 57.0° (Epoch: 18 September)

Event Time Altitude Azimuth Distance (km) Brightness Sun altitude
Exits shadow 02:28:33 - 161° (SSE) 2,300 4.3 -17.9°
Reaches altitude 10° 02:30:04 10° 146° (SE) 1,971 4.1 -17.7°
Maximum altitude 02:32:08 13° 119° (ESE) 1,792 4.2 -17.4°
Drops below altitude 10° 02:34:14 10° 91° (E) 2,001 4.9 -17.1°
Sets 02:37:42 0° 65° (ENE) 2,925 6.6 -16.6°
